8,
Avoca, PA
on Friday, July 31, 2015

Friday
Previous Day Next Day
Daily Summary
 ActualAverageRecord
Temperature
Mean Temperature °F 71°F  
Max Temperature 87°F 82°F 98°F (1917)
Min Temperature 61°F 61°F 47°F (1956)
Degree Days
Heating Degree Days 0 0  
Month to date heating degree days 0 0  
Since 1 June heating degree days 24 62  
Since 1 July heating degree days 0 8  
Cooling Degree Days 9 6  
Month to date cooling degree days 253 206  
Year to date cooling degree days 556 360  
Since 1 June cooling degree days 408 323  
Growing Degree Days24 (Base °F )  
Moisture
Dew Point 57°F   
Average Humidity 61    
Maximum Humidity 90    
Minimum Humidity 32    
Precipitation
Precipitation 0.00 in 0.13 in 2.85 in (1946)
Month to date precipitation 2.33 3.79  
Year to date precipitation 18.41 21.62  
Since 1 June precipitation 8.85 7.82  
Wind
Wind Speed 3 mph   
Max Wind Speed 13 mph   
Max Gust Speed 17 mph   
Visibility 10.0 miles   
Events     

Key: T is trace of precipitation, MM is missing value
Source: Averaged Metar Reports
Time(EDT)TemperatureDew PointHumidity Pressure Visibility Wind DirectionWind SpeedGust SpeedPrecipitationEvents Conditions
12:54 AM 68.0°F 61.0°F 78% 29.89 in 10.0 miles Calm Calm - N/A   Clear
1:54 AM 64.0°F 61.0°F 90% 29.88 in 10.0 miles SE 3.5 mph - N/A   Clear
2:54 AM 63.0°F 59.0°F 87% 29.88 in 10.0 miles South 3.5 mph - N/A   Clear
3:54 AM 63.0°F 57.9°F 84% 29.88 in 10.0 miles South 3.5 mph - N/A   Scattered Clouds
4:54 AM 63.0°F 57.9°F 84% 29.88 in 10.0 miles SSW 3.5 mph - N/A   Partly Cloudy
5:54 AM 62.1°F 57.0°F 84% 29.88 in 10.0 miles Calm Calm - N/A   Clear
6:54 AM 63.0°F 57.9°F 84% 29.89 in 10.0 miles Calm Calm - N/A   Clear
7:54 AM 70.0°F 59.0°F 68% 29.91 in 10.0 miles WSW 3.5 mph - N/A   Clear
8:54 AM 73.0°F 59.0°F 61% 29.92 in 10.0 miles WSW 6.9 mph - N/A   Clear
9:54 AM 75.0°F 60.1°F 60% 29.91 in 10.0 miles WSW 5.8 mph - N/A   Clear
10:54 AM 79.0°F 57.9°F 48% 29.91 in 10.0 miles Variable 4.6 mph - N/A   Clear
11:54 AM 81.0°F 57.9°F 45% 29.91 in 10.0 miles West 6.9 mph - N/A   Partly Cloudy
12:54 PM 82.9°F 50.0°F 32% 29.89 in 10.0 miles WNW 3.5 mph - N/A   Clear
1:54 PM 84.0°F 52.0°F 33% 29.88 in 10.0 miles WNW 5.8 mph - N/A   Clear
2:54 PM 84.9°F 52.0°F 32% 29.86 in 10.0 miles Variable 3.5 mph - N/A   Clear
3:54 PM 84.9°F 54.0°F 34% 29.85 in 10.0 miles Variable 4.6 mph 17.3 mph N/A   Mostly Cloudy
4:54 PM 84.9°F 57.0°F 38% 29.84 in 10.0 miles West 9.2 mph - N/A   Partly Cloudy
5:54 PM 82.9°F 57.0°F 41% 29.82 in 10.0 miles West 6.9 mph - N/A   Clear
6:54 PM 84.0°F 55.9°F 38% 29.81 in 10.0 miles WSW 10.4 mph - N/A   Partly Cloudy
7:54 PM 81.0°F 57.0°F 44% 29.81 in 10.0 miles SW 5.8 mph - N/A   Clear
8:54 PM 77.0°F 57.9°F 52% 29.81 in 10.0 miles Calm Calm - N/A   Scattered Clouds
Astronomy
Sunrise:05:56 AM (EDT) Moon Rise:08:21 PM (EDT)7/31
Sunset:08:21 PM (EDT) Moon Set:06:10 AM (EDT)7/31
Moon Phase
Jul. 31 Aug. 07 Aug. 14 Aug. 22 Aug. 29

Copyright © 2015 The Weather Underground, Inc.
8,